Wind_Speed
44 45 52 58 63 71 75 79 79 79 78 82 83 85 86 90 91 91 88 89 91 87 89 86 84 81 75 72 70 66 63 58 56 55 54 49 45 38 46 47 43 41 40
54 55 61 69 73 75 76 77 74 74 77 76 73 75 75 82 85 89 94 93 93 94 90 91 88 87 82 78 75 71 67 61 57 60 57 51 51 42 44 45 43 48 47
64 64 65 73 81 75 76 68 65 62 64 64 68 73 74 76 79 80 84 96 99 95 94 92 92 89 87 83 81 77 72 68 64 62 56 54 53 46 45 35 34 33 38
67 64 72 78 80 77 72 69 63 61 61 64 69 73 75 77 79 79 83 85 96 100 100 95 91 91 89 88 87 82 78 72 68 68 66 57 57 51 47 41 39 35 32
65 71 78 82 80 73 68 62 59 57 59 62 66 70 73 77 80 79 81 85 88 96 104 98 97 93 92 90 88 89 83 79 72 68 68 67 63 56 46 43 38 34 34
68 76 81 87 78 71 65 61 59 57 58 60 65 67 68 71 76 78 79 84 90 92 99 104 100 98 94 92 89 87 86 83 77 75 67 63 64 64 59 43 45 43 44
74 80 82 82 76 71 66 64 64 60 57 55 57 61 65 66 71 75 77 82 87 95 95 99 101 101 97 94 92 91 86 82 80 81 76 66 67 67 68 60 55 47 44
75 81 81 83 76 69 66 65 63 58 52 48 48 51 58 62 65 70 77 79 84 92 98 97 101 101 101 96 93 92 91 85 83 83 81 73 64 66 64 58 50 50 50
76 85 86 84 74 67 66 65 60 54 52 49 45 47 52 58 62 65 72 77 79 85 95 100 100 103 101 100 96 94 92 90 88 87 85 80 76 66 63 61 50 49 54
80 88 89 85 73 67 67 61 54 51 50 49 49 47 47 53 58 59 63 69 76 77 82 93 97 100 102 99 97 97 94 92 87 88 87 82 78 76 72 71 72 61 62
84 89 93 82 69 67 65 59 53 49 46 44 41 42 41 43 49 55 57 59 65 72 77 80 88 96 98 98 97 98 95 93 88 86 86 83 79 75 74 69 67 66 64
89 93 94 78 69 68 63 56 49 43 39 38 37 36 35 37 39 43 50 49 53 59 67 74 80 86 91 97 99 100 98 96 93 86 86 83 83 76 72 70 68 67 64
91 90 88 73 70 67 59 51 42 39 36 33 31 29 28 29 33 37 40 41 44 49 54 62 73 79 86 91 98 100 101 99 95 90 89 83 76 72 69 70 70 68 69
87 87 81 70 70 63 55 45 39 35 32 29 28 25 24 25 27 33 34 35 38 41 46 51 60 74 82 87 93 100 103 100 97 95 89 88 82 76 71 71 70 70 67
81 82 73 69 65 60 47 42 36 32 27 21 20 20 20 21 24 25 26 29 31 35 39 46 54 64 75 84 90 96 102 101 98 94 90 82 74 64 64 69 62 71 69
77 75 68 68 61 51 43 38 33 28 21 16 12 11 12 15 17 20 21 25 29 32 36 44 52 59 70 81 86 92 97 100 96 94 90 83 74 73 58 63 67 62 66
71 68 65 62 54 44 40 35 28 23 17 15 10 7 5 6 8 12 17 23 27 31 36 42 50 57 65 74 84 89 95 95 97 94 90 87 81 68 71 65 60 58 55
64 63 61 53 44 39 35 28 21 17 15 13 8 4 1 3 8 11 14 17 21 26 33 39 45 49 56 67 78 85 89 93 96 96 91 85 79 74 67 59 59 57 55
58 59 57 44 36 33 29 23 23 23 20 17 12 8 3 2 7 13 15 17 22 26 30 36 41 48 56 64 74 80 84 86 94 95 89 83 77 73 68 56 56 54 54
53 53 45 35 30 27 23 26 28 25 24 24 19 16 9 5 7 11 12 14 18 24 28 31 36 43 51 62 71 76 80 83 86 82 84 78 79 70 66 67 59 53 46
48 47 35 28 25 21 19 26 24 20 20 24 25 19 18 15 11 8 11 15 21 24 27 29 33 38 46 58 68 75 77 77 81 86 71 55 56 50 60 69 55 56 59
43 40 28 23 18 12 13 19 18 23 20 25 25 17 20 20 18 15 15 15 18 22 25 28 34 39 46 57 65 70 72 69 71 68 71 63 61 65 57 59 61 50 53
38 32 20 19 12 6 8 12 17 12 13 23 24 19 21 23 26 22 20 19 18 23 26 27 33 41 48 57 63 66 66 67 61 64 67 70 63 59 57 57 64 61 55
33 24 16 15 8 2 3 6 10 14 13 19 25 21 22 25 24 19 19 19 22 31 33 25 28 40 49 59 63 70 65 55 50 53 58 60 66 58 59 57 59 53 55
26 18 13 13 5 7 4 6 6 16 17 26 25 30 31 31 29 24 23 22 19 26 35 30 33 46 51 59 67 72 71 64 57 58 62 67 71 70 64 61 63 62 67
20 14 9 11 5 10 9 5 8 12 14 26 25 29 33 33 36 34 26 22 22 20 24 31 40 50 56 60 69 81 74 62 57 60 70 64 59 63 64 59 63 61 62
Wind_Direction
289 284 290 288 288 284 279 274 274 274 272 269 265 263 260 255 250 245 240 242 241 239 238 231 231 233 233 234 234 236 239 239 240 239 241 241 243 249 251 258 266 267 263
298 288 294 304 304 297 285 279 275 274 271 269 266 262 260 257 252 249 242 239 239 241 239 238 233 231 232 233 235 234 236 237 239 238 240 243 242 241 250 257 264 265 263
309 303 302 309 309 301 298 291 284 279 271 267 264 263 262 256 252 246 244 240 235 236 238 238 238 235 231 233 235 235 235 236 236 235 241 240 242 239 241 247 256 264 264
309 306 308 311 310 305 299 294 288 283 276 269 266 264 261 257 252 249 242 239 237 234 235 237 236 237 234 231 233 234 236 234 236 235 236 238 240 237 233 237 247 261 270
307 307 309 315 316 308 300 293 288 285 280 274 267 263 259 257 254 246 242 237 233 233 233 234 235 234 234 234 233 233 233 234 235 237 235 233 236 235 233 229 240 240 244
311 313 316 316 318 313 308 304 298 291 283 277 270 265 257 253 250 247 239 235 231 229 230 231 233 232 230 231 232 232 231 233 233 234 233 232 233 234 232 223 236 245 247
313 316 318 321 321 317 312 307 301 294 286 277 268 263 259 252 246 245 242 234 231 229 226 226 229 229 227 227 229 230 231 230 232 232 232 229 231 233 237 242 241 239 239
319 322 320 326 323 318 312 308 304 299 291 282 270 260 256 253 247 242 240 237 231 228 226 223 225 227 225 224 225 228 229 229 230 233 232 230 230 235 238 236 237 240 238
319 323 324 327 322 317 315 312 306 300 294 286 276 263 253 252 251 245 240 238 235 228 227 225 223 224 223 221 222 224 227 229 228 232 233 232 231 232 229 229 236 240 238
323 325 328 326 322 319 317 310 304 298 288 283 280 270 259 251 249 250 244 240 239 232 229 226 224 223 221 219 219 221 223 227 227 230 232 234 234 237 236 238 241 238 238
322 327 329 324 322 322 316 311 306 299 288 282 277 269 260 252 246 246 247 242 238 235 230 226 224 222 222 219 217 217 219 222 224 226 230 231 233 237 239 243 242 241 244
323 327 328 325 325 322 317 313 308 298 291 284 278 272 263 255 249 242 242 241 236 234 232 227 221 221 220 219 218 216 215 218 221 221 226 229 233 233 237 240 242 243 245
325 328 329 327 326 322 317 315 308 302 295 292 286 278 269 257 247 243 238 236 235 232 228 224 219 217 216 216 216 216 214 214 218 219 223 223 226 231 235 237 240 242 243
327 329 329 327 327 321 321 315 314 307 304 297 289 279 268 254 243 239 238 230 226 225 222 219 217 214 212 212 212 213 215 213 215 218 221 223 229 229 233 237 240 244 249
328 329 328 328 326 322 321 322 318 313 308 298 284 271 258 248 241 236 230 225 221 216 212 211 211 211 211 210 209 208 212 213 214 217 219 222 223 223 228 231 234 242 246
326 328 328 329 324 326 326 325 321 316 314 309 301 282 259 244 235 227 218 214 212 209 206 206 205 205 207 207 207 205 208 211 212 216 218 220 220 222 219 229 235 238 241
326 327 328 329 325 328 329 329 329 329 335 334 326 303 272 240 225 216 206 201 202 203 202 202 202 202 203 203 204 204 205 207 210 214 218 221 221 223 229 233 238 244 245
324 327 329 328 328 335 336 340 342 345 350 350 345 349 11 187 178 182 186 188 194 195 197 198 196 197 198 199 200 201 202 203 206 212 216 220 223 225 228 233 238 244 253
324 327 330 325 336 344 344 3 15 23 25 29 30 20 346 185 172 173 178 185 184 184 187 192 195 194 193 193 194 197 198 199 204 210 214 219 223 227 229 226 233 236 243
325 327 331 328 347 353 358 22 29 23 35 43 43 45 51 105 147 158 168 173 174 172 177 185 188 191 191 190 190 191 193 197 199 205 211 218 224 225 229 233 233 235 242
325 328 328 335 356 357 10 30 31 36 34 46 51 58 69 80 96 122 153 165 167 168 171 178 182 180 180 184 184 186 188 193 197 203 198 185 207 218 227 226 231 241 238
325 328 326 346 5 358 12 32 37 67 39 41 64 80 81 89 94 104 133 152 159 170 167 170 167 168 172 176 177 178 184 189 194 196 201 204 217 213 221 227 222 215 229
326 330 327 356 12 355 38 24 43 39 49 62 89 82 73 82 99 112 125 128 146 141 132 145 153 158 163 170 170 173 176 186 189 192 199 203 212 221 229 234 236 236 238
323 333 334 6 23 149 82 34 58 58 48 77 85 93 92 86 82 97 102 109 126 127 127 126 142 152 159 164 167 169 160 167 183 190 196 204 204 200 207 218 221 222 235
323 329 346 14 39 156 206 123 69 87 87 94 94 103 99 95 90 93 89 93 110 134 138 153 145 156 163 163 164 162 162 168 179 189 203 209 208 212 217 224 232 234 246
328 325 6 15 62 167 207 97 130 111 99 98 95 106 104 97 88 82 95 91 106 113 144 162 166 162 162 164 166 162 165 171 179 189 200 210 213 219 222 224 230 234 241
Height
10854 10851 10848 10841 10834 10825 10819 10814 10812 10811 10810 10808 10810 10814 10818 10824 10833 10840 10851 10856 10863 10871 10878 10888 10895 10900 10908 10916 10921 10928 10933 10939 10944 10947 10952 10957 10963 10966 10965 10965 10966 10967 10971
10846 10841 10834 10828 10822 10814 10804 10799 10797 10794 10792 10791 10790 10792 10796 10798 10806 10815 10827 10836 10845 10853 10861 10870 10878 10887 10896 10905 10910 10918 10925 10931 10936 10940 10946 10952 10956 10961 10961 10962 10959 10961 10965
10831 10828 10822 10813 10804 10794 10783 10778 10776 10773 10771 10772 10771 10772 10773 10777 10782 10790 10802 10811 10822 10832 10842 10852 10862 10874 10884 10893 10899 10906 10916 10923 10929 10933 10939 10944 10950 10955 10956 10957 10955 10954 10958
10820 10813 10806 10798 10786 10775 10768 10759 10755 10753 10752 10751 10749 10750 10749 10753 10760 10768 10776 10787 10797 10811 10823 10832 10844 10857 10870 10880 10886 10895 10906 10914 10922 10927 10932 10939 10944 10948 10949 10950 10952 10950 10953
10808 10801 10791 10780 10769 10757 10749 10743 10738 10735 10731 10728 10726 10727 10727 10729 10733 10742 10752 10762 10773 10786 10800 10812 10823 10839 10852 10864 10872 10881 10894 10903 10913 10916 10920 10928 10935 10939 10942 10945 10946 10948 10950
10796 10787 10774 10763 10749 10737 10728 10720 10716 10716 10713 10709 10704 10702 10705 10708 10710 10716 10727 10737 10750 10762 10777 10790 10801 10817 10833 10848 10859 10869 10881 10891 10901 10902 10909 10920 10924 10929 10934 10938 10940 10944 10944
10783 10773 10761 10748 10733 10722 10711 10703 10697 10693 10690 10689 10685 10682 10681 10686 10689 10694 10703 10714 10725 10737 10752 10766 10780 10796 10815 10831 10844 10855 10866 10880 10886 10889 10899 10908 10915 10918 10925 10930 10931 10937 10937
10770 10758 10746 10731 10719 10708 10699 10689 10680 10674 10669 10667 10665 10665 10662 10664 10668 10674 10680 10689 10702 10714 10728 10746 10759 10773 10794 10812 10828 10839 10851 10866 10874 10878 10888 10898 10907 10912 10917 10922 10924 10930 10930
10759 10747 10732 10719 10707 10697 10686 10675 10666 10658 10651 10648 10649 10648 10649 10648 10649 10655 10662 10670 10681 10695 10708 10724 10740 10753 10774 10795 10812 10825 10838 10849 10862 10868 10878 10889 10898 10905 10910 10913 10916 10922 10921
10747 10734 10720 10707 10694 10683 10673 10663 10655 10647 10640 10634 10632 10632 10632 10634 10634 10638 10646 10654 10664 10677 10691 10705 10722 10738 10756 10778 10796 10809 10823 10835 10850 10859 10871 10882 10890 10894 10902 10905 10909 10912 10911
10735 10722 10710 10696 10683 10670 10658 10649 10641 10634 10626 10622 10620 10617 10619 10621 10623 10626 10629 10638 10648 10658 10673 10688 10706 10723 10741 10762 10779 10793 10810 10822 10837 10850 10860 10872 10876 10885 10892 10898 10899 10903 10906
10721 10708 10695 10681 10668 10656 10645 10636 10628 10621 10616 10611 10608 10607 10607 10609 10610 10613 10617 10624 10633 10644 10655 10671 10688 10706 10724 10746 10762 10778 10794 10808 10823 10840 10849 10861 10863 10877 10885 10888 10890 10894 10896
10709 10696 10683 10668 10656 10645 10635 10626 10618 10611 10605 10601 10598 10597 10597 10598 10601 10603 10608 10616 10623 10630 10642 10655 10671 10690 10704 10724 10746 10764 10778 10795 10811 10828 10836 10856 10849 10871 10873 10878 10881 10883 10889
10699 10684 10671 10659 10648 10636 10626 10617 10609 10602 10596 10592 10590 10588 10589 10590 10592 10595 10600 10606 10612 10621 10631 10643 10657 10670 10686 10707 10728 10746 10763 10783 10800 10814 10830 10844 10850 10864 10864 10868 10870 10876 10883
10689 10678 10664 10652 10640 10629 10619 10609 10601 10595 10590 10586 10584 10582 10582 10584 10586 10589 10593 10599 10605 10612 10621 10631 10642 10655 10672 10690 10709 10731 10750 10773 10793 10808 10822 10836 10844 10852 10858 10859 10863 10868 10874
10682 10672 10660 10647 10633 10623 10613 10604 10595 10590 10586 10582 10580 10579 10579 10580 10582 10585 10589 10594 10599 10605 10613 10622 10633 10644 10659 10677 10696 10717 10737 10764 10786 10799 10812 10822 10833 10841 10848 10853 10856 10861 10864
10677 10667 10655 10643 10630 10620 10610 10601 10594 10588 10584 10580 10578 10577 10577 10578 10580 10584 10586 10591 10596 10602 10608 10616 10625 10635 10649 10669 10688 10707 10728 10755 10778 10792 10803 10814 10827 10833 10843 10847 10849 10853 10855
10673 10664 10653 10640 10630 10619 10609 10601 10594 10587 10582 10579 10578 10577 10576 10577 10579 10583 10586 10589 10594 10599 10605 10613 10621 10632 10645 10661 10680 10699 10723 10746 10769 10783 10796 10808 10822 10827 10834 10839 10843 10846 10846
10670 10662 10651 10640 10629 10619 10610 10603 10595 10588 10584 10581 10579 10578 10578 10578 10579 10582 10586 10590 10593 10598 10604 10612 10619 10629 10640 10655 10674 10696 10719 10741 10758 10776 10794 10805 10814 10820 10828 10832 10834 10837 10841
10668 10660 10649 10640 10629 10620 10614 10607 10600 10594 10589 10586 10583 10581 10581 10581 10583 10585 10588 10592 10595 10599 10605 10611 10618 10627 10639 10652 10670 10693 10715 10734 10755 10772 10789 10802 10807 10816 10820 10821 10826 10832 10834
10665 10658 10649 10639 10630 10623 10618 10612 10607 10601 10597 10595 10592 10589 10586 10585 10587 10589 10592 10594 10597 10600 10605 10611 10619 10628 10639 10653 10670 10690 10710 10733 10751 10766 10787 10796 10798 10807 10809 10813 10822 10823 10825
10663 10656 10649 10639 10631 10627 10622 10619 10616 10610 10605 10603 10600 10597 10596 10594 10594 10596 10597 10600 10602 10605 10608 10613 10620 10630 10642 10657 10675 10696 10716 10735 10750 10767 10777 10787 10789 10798 10800 10803 10813 10814 10815
10660 10653 10648 10639 10633 10630 10627 10623 10620 10618 10614 10611 10609 10606 10603 10603 10602 10602 10604 10606 10609 10613 10614 10621 10628 10636 10648 10664 10681 10701 10721 10735 10752 10763 10770 10775 10785 10791 10796 10795 10802 10807 10812
10657 10652 10646 10639 10634 10633 10631 10628 10626 10624 10621 10617 10615 10613 10611 10610 10611 10611 10611 10612 10614 10617 10619 10628 10640 10647 10658 10670 10687 10701 10719 10739 10752 10760 10767 10773 10778 10785 10788 10791 10794 10803 10807
10655 10650 10645 10639 10635 10634 10634 10634 10632 10630 10629 10623 10621 10619 10618 10618 10619 10620 10620 10621 10622 10628 10629 10637 10652 10659 10667 10675 10688 10706 10724 10737 10747 10754 10762 10762 10771 10781 10782 10788 10793 10798 10800
10652 10649 10645 10639 10636 10635 10635 10637 10638 10634 10633 10629 10629 10626 10624 10625 10626 10627 10629 10629 10631 10635 10641 10647 10655 10662 10672 10684 10697 10709 10720 10732 10742 10748 10752 10761 10769 10774 10778 10784 10787 10790 10793